[keps] orb09267.2l.amsat

Ray Hoad r.hoad at att.net
Thu Sep 24 19:23:35 PDT 2009


SB KEPS @ AMSAT  $ORB09267.N
2Line Orbital Elements 09267.AMSAT

HR AMSAT ORBITAL ELEMENTS FOR AMATEUR SATELLITES IN NASA FORMAT
FROM WA5QGD FORT WORTH,TX September 24, 2009
Send Subscribe/unsubscribe to KEPS at 
http://www.amsat.org/mailman/listinfo/keps
BID: ORB09267.N

DECODE 2-LINE ELSETS WITH THE FOLLOWING KEY:
1 AAAAAU 00  0  0 BBBBB.BBBBBBBB  .CCCCCCCC  00000-0  00000-0 0  DDDZ
2 AAAAA EEE.EEEE FFF.FFFF GGGGGGG HHH.HHHH III.IIII JJ.JJJJJJJJKKKKKZ
KEY: A-CATALOGNUM B-EPOCHTIME C-DECAY D-ELSETNUM E-INCLINATION F-RAAN
G-ECCENTRICITY H-ARGPERIGEE I-MNANOM J-MNMOTION K-ORBITNUM Z-CHECKSUM

TO ALL RADIO AMATEURS BT

AO-07
1 07530U 74089B   09266.64966380 -.00000027  00000-0  10000-3 0 05897
2 07530 101.4228 287.6976 0012113 075.8139 284.4277 12.53576612595057
FO-29
1 24278U 96046B   09266.80386596  .00000009  00000-0  42082-4 0  1380
2 24278 098.5366 127.5162 0351354 094.7707 269.3635 13.52945158647083
SO-33
1 25509U 98061B   09267.23928596  .00000015  00000-0 -87820-5 0  5491
2 25509 031.4297 212.3954 0354089 124.5654 238.8897 14.28265184570009
RS-22
1 27939U 03042A   09267.55197243 -.00000003  00000-0  81154-5 0  8974
2 27939 097.9262 138.7214 0013436 174.7247 185.4092 14.63341495320107
VO-52
1 28650U 05017B   09266.78655337 -.00000143  00000-0 -11557-4 0 03268
2 28650 097.7326 325.0550 0028232 068.8562 291.5677 14.81619575237241
AO-16
1 20439U 90005D   09267.50489968  .00000010  00000-0  19339-4 0  7094
2 20439 098.2917 231.4490 0010086 233.7439 126.2811 14.31833886 27369
LO-19
1 20442U 90005G   09266.84694949  .00000019  00000-0  22285-4 0 06251
2 20442 098.2541 237.7000 0011066 231.1320 128.8869 14.32068279027438
AO-27
1 22825U 93061C   09266.85388774 -.00000086  00000-0 -17077-4 0  3469
2 22825 098.4473 217.2178 0008022 339.9913 020.0949 14.29273067834003
IO-26
1 22826U 93061D   09267.80659827 -.00000013  00000-0  11552-4 0   778
2 22826 098.4404 218.8481 0008614 332.5353 027.5381 14.29526422834240
GO-32
1 25397U 98043D   09266.78257704  .00000012  00000-0  23116-4 0  9971
2 25397 098.3237 283.8310 0001123 011.5427 348.5754 14.23164028582150
NO-44
1 26931U 01043C   09267.77078674 -.00000256  00000-0 -67752-4 0  2729
2 26931 067.0515 167.7874 0006739 272.3991 087.6288 14.29566357416812
SO-50
1 27607U 02058C   09267.82285157 -.00000055  00000-0  13260-4 0  9929
2 27607 064.5574 082.4827 0055465 180.7329 179.3688 14.71459919363331
CO-55
1 27844U 03031E   09267.58021913  .00000031  00000-0  34850-4 0  6743
2 27844 098.7141 275.3517 0009079 215.3853 144.6711 14.20656974323375
CO-57
1 27848U 03031J   09267.57168255  .00000010  00000-0  25261-4 0  6245
2 27848 098.7174 274.4070 0009120 219.2762 140.7756 14.20456540323337
AO-51
1 28375U 04025K   09266.51937236  .00000004  00000-0  13868-4 0  4927
2 28375 098.0549 270.4054 0083127 186.1857 173.8318 14.40652751275113
CO-56
1 28941U 06005C   09267.69582761  .00194003  18326-4  30967-3 0  4706
2 28941 098.1266 101.9850 0048113 111.2465 249.3966 16.01352507203070
GENESAT1
1 29655U 06058C   09266.47770912  .00012700  00000-0  11550-3 0 08226
2 29655 040.0235 286.5579 0002312 182.7418 177.3385 15.67605070157895
CP3
1 31129U 07012N   09267.66975367  .00000063  00000-0  25405-4 0  2159
2 31129 097.9793 315.9322 0102369 337.6477 022.0270 14.52163412129324
CO-65
1 32785U 08021C   09267.20631362  .00000110  00000-0  20751-4 0  4797
2 32785 097.9354 330.3035 0016131 070.3831 289.9117 14.81519158 76109
KKS-1
1 33493U 09002B   09267.70651027  .00000244  00000-0  38717-4 0  7847
2 33493 098.0646 020.3942 0018839 280.7358 079.1742 14.80732299 36193
SOHLA-1
1 33496U 09002E   09267.87194857 -.00000006  00000-0  71902-5 0  7505
2 33496 098.0448 015.6597 0006234 337.6047 022.4881 14.69446875 35915
NOAA-10
1 16969U 86073A   09266.64433572 -.00000072  00000-0 -11418-4 0 07721
2 16969 098.6860 292.7331 0011488 271.0506 088.9342 14.27394413197559
NOAA-11
1 19531U 88089A   09266.71464948  .00000159  00000-0  10499-3 0 07908
2 19531 098.7821 355.1361 0011417 184.4351 175.6717 14.14904356083451
NOAA-12
1 21263U 91032A   09266.92945031  .00000031  00000-0  32029-4 0 02868
2 21263 098.7750 275.0474 0011536 217.0924 142.9458 14.25594172954463
MET-3/5
1 21655U 91056A   09267.89660305  .00000051  00000-0  10000-3 0  6583
2 21655 082.5578 136.0787 0012774 295.8852 064.0954 13.17021059870752
MET-2/21
1 22782U 93055A   09267.68324793  .00000009  00000-0 -55430-5 0  5739
2 22782 082.5428 103.0919 0023816 068.9574 291.4122 13.83638293811360
OKEAN-4
1 23317U 94066A   09267.77595925  .00000297  00000-0  33620-4 0   261
2 23317 082.5380 241.5409 0023559 039.8316 320.4636 14.82722307807121
NOAA-14
1 23455U 94089A   09266.82742834  .00000207  00000-0  13294-3 0 07685
2 23455 098.9025 344.1283 0008554 270.4845 089.5325 14.13770769759863
NOAA-15
1 25338U 98030A   09266.72094312  .00000084  00000-0  54507-4 0 00923
2 25338 098.5942 253.8141 0011485 127.2676 232.9557 14.24785163590800
RESURS
1 25394U 98043A   09267.71243262 -.00000051  00000-0 -43164-5 0  3173
2 25394 098.3338 294.9638 0000930 319.6791 040.4319 14.24188461582564
FENGYUN1
1 25730U 99025A   09266.92076655  .00000282  00000-0  19069-3 0 08602
2 25730 098.7619 234.1515 0021629 299.4853 060.4159 14.07986645534210
OKEAN-0
1 25860U 99039A   09267.58157857  .00000003  00000-0  77615-5 0  7926
2 25860 097.7981 244.8725 0000768 104.1782 255.9507 14.73588373547783
NOAA-16
1 26536U 00055A   09266.68098490 -.00000235  00000-0 -10201-3 0 05714
2 26536 099.1801 272.7492 0010719 010.0063 350.1301 14.12532008464208
NOAA-17
1 27453U 02032A   09266.85735451 -.00000058  00000-0 -70311-5 0 05683
2 27453 098.4727 322.4769 0011662 190.8164 169.2754 14.24092178376792
NOAA-18
1 28654U 05018A   09266.87792339  .00000070  00000-0  63068-4 0 00557
2 28654 098.9150 209.3834 0015344 084.3210 275.9708 14.11288249223873
NOAA-19
1 33591U 09005A   09266.87910306  .00000015  00000-0  32194-4 0 02602
2 33591 098.7548 210.1060 0013737 328.0292 032.0041 14.10987920032355
HUBBLE
1 20580U 90037B   09264.20478514  .00000313  00000-0  11154-4 0 04512
2 20580 028.4698 195.6356 0003465 221.7899 138.2394 15.00831186864297
ISS
1 25544U 98067A   09266.84340728  .00011653  00000-0  83093-4 0 06629
2 25544 051.6391 160.3470 0009216 122.3268 282.5449 15.74306025621499
CO-58
1 28895U 05043F   09266.69883262  .00000148  00000-0  40332-4 0  4029
2 28895 098.0434 154.4800 0018743 042.3067 317.9577 14.59796950208104
FALCON
1 30776U 07006E   09267.92099022  .00000376  00000-0  30204-4 0  6641
2 30776 035.4340 214.2815 0001159 022.6398 337.4376 15.03308892140112
MAST
1 31126U 07012K   09266.68198275 -.00000015  00000-0  73390-5 0  6926
2 31126 097.9767 316.9232 0094608 334.8326 024.8271 14.53517352129341
CAPE1
1 31130U 07012P   09267.71372517  .00000088  00000-0  31184-4 0  7024
2 31130 097.9796 315.8699 0102718 337.7508 021.9253 14.52088193129139
COMPASS
1 32787U 08021E   09267.24197014  .00000212  00000-0  33672-4 0  4715
2 32787 097.9334 330.1796 0016944 072.1147 288.1901 14.81658306 76115
AAUSAT2
1 32788U 08021F   09267.74178269  .00000300  00000-0  44690-4 0  4677
2 32788 097.9329 330.7497 0016680 071.0661 289.2347 14.81783954 76192
DO-64
1 32789U 08021G   09267.76346464  .00000469  00000-0  65978-4 0  4829
2 32789 097.9367 330.9995 0016792 069.1001 291.1998 14.81797022 76195
CO-66
1 32791U 08021J   09267.16135932  .00000376  00000-0  54626-4 0  4636
2 32791 097.9349 330.1327 0017298 069.4864 290.8203 14.81481288 76066
RS-30
1 32953U 08025A   09266.30655574  .00000010  00000-0  00000-0 0 04148
2 32953 082.5039 195.6012 0019024 329.3307 030.6658 12.43003151060585
TACSAT-3
1 35001U 09028A   09267.68744490  .00002513  00000-0  68537-4 0  1046
2 35001 040.4564 005.4931 0023397 184.6781 175.3817 15.39197617 19680
PHARMSAT
1 35002U 09028B   09267.68883938  .00002253  00000-0  60465-4 0  1018
2 35002 040.4699 004.7396 0026619 188.7586 171.2767 15.39949571 19688
HAWKSAT1
1 35003U 09028C   09266.67122187  .00004531  00000-0  11277-3 0  1050
2 35003 040.4631 010.1201 0026214 185.0812 174.9742 15.40694234 19547
CP6
1 35004U 09028D   09266.66990159  .00005363  00000-0  13217-3 0   994
2 35004 040.4607 010.1109 0025561 184.5654 175.4935 15.40762201 19539
AEROCUB3
1 35005U 09028E   09267.20387752  .00004854  00000-0  12102-3 0  1004
2 35005 040.4747 007.2635 0025612 185.9443 174.1073 15.40556961 19616
DRAGNSAT
1 35690U 09038B   09267.13185014  .00029262  00000-0  13822-3 0   531
2 35690 051.6396 155.5580 0002188 283.2389 076.8367 15.82789980  8808
POLLUX
1 35693U 09038E   09267.15150619  .00025324  00000-0  12393-3 0   558
2 35693 051.6398 155.6978 0002999 202.5979 157.5010 15.82117463  8773
CASTOR
1 35694U 09038F   09267.80341062  .00013764  00000-0  72405-4 0   539
2 35694 051.6408 152.5617 0003143 214.4095 145.6690 15.81064969  8879
METEOR-M
1 35865U 09049A   09267.76253122  .00000176  00000-0  10000-3 0    80
2 35865 098.8003 317.9196 0003392 063.6114 296.5400 14.21825734  1005
OBJECT-B
1 35866U 09049B   09267.76020534  .00000178  00000-0  10000-3 0    93
2 35866 098.8007 317.9269 0004133 060.3718 299.7853 14.22295747  1002
FREGAT-I
1 35867U 09049C   09267.69394093  .00002263  00000-0  10000-3 0   198
2 35867 097.3746 317.6403 0008464 263.5757 096.4296 15.22710586  1068
/EX






More information about the Keps mailing list